THA476 YSSY-VTBS

Flight info

Callsign THA476
Flight time N/A
Altitude 38000
Route KADOM A576 TATUK/N0488F400 A576 ATMAP M635 BLI G464 PNK N875 ENREP M904 TONIK M644 ALUMO Y12 ALEMI TUMGA1C
Aircraft A359/H-SDE2E3GHIJ3J4J5LM1ORWXY/LB1D1

Departure

Time 2026-05-05 09:31
Airport Sydney Kingsford Smith International Airport (YSSY)

Arrival

Time N/A
Airport Suvarnabhumi Airport (VTBS)
Time Latitude Longitude Altitude Speed Heading
2026-05-05 09:09 -33.93894 151.16858 27 ft 0 kts 70°
2026-05-05 09:21 -33.93898 151.16847 27 ft 3 kts 72°
2026-05-05 09:21 -33.93903 151.16823 27 ft 3 kts 79°
2026-05-05 09:21 -33.93906 151.16800 27 ft 3 kts 91°
2026-05-05 09:22 -33.93904 151.16779 26 ft 3 kts 110°
2026-05-05 09:22 -33.93902 151.16773 26 ft 3 kts 120°
2026-05-05 09:22 -33.93893 151.16759 24 ft 1 kts 162°
2026-05-05 09:22 -33.93891 151.16758 24 ft 5 kts 165°
2026-05-05 09:25 -33.93924 151.16769 27 ft 11 kts 165°
2026-05-05 09:25 -33.94020 151.16802 27 ft 8 kts 162°
2026-05-05 09:26 -33.94051 151.16867 27 ft 15 kts 85°
2026-05-05 09:26 -33.94014 151.17042 27 ft 28 kts 73°
2026-05-05 09:26 -33.93954 151.17217 28 ft 19 kts 34°
2026-05-05 09:26 -33.93862 151.17199 23 ft 23 kts 347°
2026-05-05 09:27 -33.93638 151.17137 27 ft 36 kts 347°
2026-05-05 09:27 -33.93396 151.17074 27 ft 35 kts 345°
2026-05-05 09:27 -33.93278 151.16988 27 ft 14 kts 318°
2026-05-05 09:27 -33.93179 151.16942 27 ft 15 kts 348°
2026-05-05 09:28 -33.93073 151.16916 27 ft 16 kts 348°
2026-05-05 09:28 -33.92981 151.16960 27 ft 15 kts 77°
2026-05-05 09:28 -33.92973 151.17006 30 ft 0 kts 78°
2026-05-05 09:30 -33.92966 151.17052 28 ft 14 kts 78°
2026-05-05 09:30 -33.93024 151.17180 30 ft 21 kts 160°
2026-05-05 09:30 -33.93047 151.17187 28 ft 0 kts 168°
2026-05-05 09:30 -33.93116 151.17205 27 ft 35 kts 168°
2026-05-05 09:31 -33.93564 151.17322 26 ft 96 kts 168°
2026-05-05 09:31 -33.94390 151.17537 31 ft 146 kts 168°
2026-05-05 09:31 -33.95507 151.17840 212 ft 174 kts 167°
2026-05-05 09:31 -33.96688 151.18122 854 ft 170 kts 172°
2026-05-05 09:32 -33.97841 151.18163 1529 ft 166 kts 184°
2026-05-05 09:32 -33.98989 151.17866 1850 ft 174 kts 197°
2026-05-05 09:32 -34.00171 151.17310 2026 ft 193 kts 202°
2026-05-05 09:32 -34.01455 151.16562 2169 ft 216 kts 207°
2026-05-05 09:33 -34.02892 151.15822 2404 ft 233 kts 202°
2026-05-05 09:33 -34.04316 151.14788 2785 ft 245 kts 217°
2026-05-05 09:33 -34.05521 151.13307 3349 ft 250 kts 230°
2026-05-05 09:33 -34.06434 151.11505 3938 ft 255 kts 243°
2026-05-05 09:34 -34.06938 151.09436 4491 ft 262 kts 263°
2026-05-05 09:34 -34.06781 151.07237 5101 ft 265 kts 279°
2026-05-05 09:34 -34.06254 151.05099 5725 ft 267 kts 290°
2026-05-05 09:34 -34.05501 151.03075 6500 ft 261 kts 295°
2026-05-05 09:35 -34.04679 151.01118 7063 ft 266 kts 296°
2026-05-05 09:35 -34.02732 150.96794 7194 ft 308 kts 298°
2026-05-05 09:35 -34.01699 150.94584 8082 ft 297 kts 298°
2026-05-05 09:36 -34.00701 150.92457 9017 ft 287 kts 298°
2026-05-05 09:36 -33.99731 150.90390 9810 ft 282 kts 298°